Time,B instrument,Bx,By,Bz,sigma B,Ion instrument,Status,Tp_par,Tp_perp,carrot,r_sun,clat,clong,earth_he_angle,n_p,vp_x,vp_y,vp_z,vth_p_par,vth_p_perp
1980-06-14 00:00:31,-1,nan,nan,nan,nan,1,-3,nan,nan,1695,0.45314837,7.2207146,8.6578064,80.48201,nan,681.865,-61.8688,-98.4219,nan,nan
1980-06-14 00:01:12,-1,nan,nan,nan,nan,1,4,nan,nan,1695,0.45315737,7.2207251,8.6516113,80.483627,nan,nan,nan,nan,nan,nan
1980-06-14 00:02:33,1,11.7773,7.54545,8.25909,4.08949,1,1,191593.0,642784.0,1695,0.45316643,7.2207365,8.64151,80.485245,8.7255,624.403,-131.11,-35.7456,56.2404,103.013
1980-06-14 00:03:13,1,12.1333,7.69524,8.15714,3.08674,1,1,226332.0,639922.0,1695,0.45317549,7.2207479,8.6353149,80.486862,9.8809,636.001,-136.982,-37.0302,61.1267,102.783
1980-06-14 00:03:54,-1,nan,nan,nan,nan,1,4,nan,nan,1695,0.45317549,7.2207479,8.6314087,80.486862,nan,nan,nan,nan,nan,nan
1980-06-14 00:04:34,1,15.68,0.32,7.32,1.4067,1,1,152078.0,523885.0,1695,0.45318455,7.2207594,8.6252136,80.488495,7.51444,599.788,-72.3075,-30.9287,50.1062,92.9985
1980-06-14 00:05:15,1,16.0429,-0.171429,6.34762,1.63455,1,1,182372.0,509544.0,1695,0.4531936,7.2207708,8.6229248,80.490112,7.5529,595.86,-53.0603,-19.8049,54.8703,91.7168
1980-06-14 00:05:55,1,16.61,2.29,5.12,1.84185,1,1,164074.0,559362.0,1695,0.4531936,7.2207708,8.6151123,80.490112,8.16378,597.036,-70.1029,-13.9009,52.0449,96.0958
1980-06-14 00:06:36,1,17.06,-1.02,1.895,2.63467,1,1,147167.0,526108.0,1695,0.45320266,7.2207813,8.6089172,80.49173,7.39293,587.664,-50.0842,10.8615,49.2905,93.1956
1980-06-14 00:07:16,1,16.0263,-1.82632,5.45263,3.66348,1,1,149618.0,575163.0,1695,0.45321172,7.2207928,8.6066284,80.493347,7.84435,596.441,-55.141,-12.3667,49.6992,97.4436
1980-06-14 00:07:57,1,13.4333,-0.32381,10.219,3.03642,1,1,182641.0,537451.0,1695,0.45321172,7.2207928,8.5988159,80.493347,7.3569,617.676,-50.8475,-52.0396,54.9107,94.1949
1980-06-14 00:08:37,1,14.4619,-0.633333,9.19524,2.29062,1,1,152194.0,485207.0,1695,0.45322078,7.2208042,8.5965576,80.49498,6.38965,618.536,-60.0515,-58.3403,50.1253,89.4997
1980-06-14 00:09:18,1,14.3571,-3.4381,8.7,1.04974,1,1,147188.0,644331.0,1695,0.45322984,7.2208157,8.5903625,80.496597,7.89329,608.763,-40.0117,-38.6424,49.2939,103.137
1980-06-14 00:09:58,1,15.815,1.65,6.715,2.91463,1,1,173362.0,597720.0,1695,0.45322984,7.2208157,8.58255,80.496597,8.24387,606.524,-63.1435,-30.2672,53.4976,99.336
1980-06-14 00:10:39,1,15.19,9.32,0.125,3.19865,1,1,211670.0,470875.0,1695,0.4532389,7.2208271,8.5802612,80.498215,6.5447,610.295,-152.255,48.7944,59.1136,88.168
1980-06-14 00:11:19,1,15.7095,8.48571,4.12381,2.99398,1,1,194801.0,536642.0,1695,0.45324796,7.2208376,8.5740662,80.499832,7.7741,610.216,-135.238,6.11967,56.7092,94.124
1980-06-14 00:12:00,1,14.6762,4.15238,9.27619,2.0719,1,1,179143.0,594253.0,1695,0.45325696,7.220849,8.5717773,80.50145,7.86979,615.927,-94.1567,-47.1671,54.3823,99.0475
1980-06-14 00:12:40,1,12.27,-0.575,11.45,3.66749,1,1,167883.0,565342.0,1695,0.45325702,7.220849,8.5639648,80.501465,7.96908,615.932,-76.6688,-51.2846,52.6454,96.6081
1980-06-14 00:13:21,1,13.9,3.36667,9.2619,3.74964,1,1,204300.0,567535.0,1695,0.45326602,7.2208605,8.561676,80.503082,7.55932,631.968,-89.618,-67.0906,58.0753,96.7953
1980-06-14 00:14:01,-1,nan,nan,nan,nan,1,4,nan,nan,1695,0.45327508,7.2208719,8.555481,80.5047,nan,nan,nan,nan,nan,nan
1980-06-14 00:14:42,1,10.2043,14.1478,3.1913,2.2674,1,1,205610.0,552820.0,1695,0.45327508,7.2208719,8.5476685,80.5047,8.03091,646.607,-162.088,-0.553264,58.2613,95.5322
1980-06-14 00:15:22,-1,nan,nan,nan,nan,1,4,nan,nan,1695,0.45328414,7.2208834,8.5453796,80.506317,nan,nan,nan,nan,nan,nan
1980-06-14 00:16:03,1,12.8238,11.319,2.65714,3.65436,1,1,241512.0,448291.0,1695,0.4532932,7.2208948,8.5392151,80.50795,7.13563,649.188,-176.613,21.5539,63.1433,86.0276
1980-06-14 00:16:43,1,14.219,6.15238,6.1619,4.85943,1,1,227976.0,559902.0,1695,0.4532932,7.2208948,8.5353088,80.50795,8.42606,619.443,-135.867,-6.09388,61.3483,96.1421
1980-06-14 00:17:24,1,10.6455,3.84545,11.9318,3.73081,1,1,180379.0,436754.0,1695,0.45330226,7.2209053,8.5291138,80.509567,5.88047,627.877,-85.7551,-69.3683,54.5696,84.9134
1980-06-14 00:18:04,1,14.6762,3.21429,6.12381,5.82393,1,1,227975.0,591624.0,1695,0.45331132,7.2209167,8.5229187,80.511185,9.25025,631.057,-87.8298,-54.886,61.3482,98.8282
1980-06-14 00:18:45,1,17.5571,1.60952,0.390476,1.1761,1,1,220837.0,581564.0,1695,0.45331132,7.2209167,8.5190125,80.511185,8.73561,586.017,-68.5235,14.2948,60.3801,97.9843
1980-06-14 00:19:25,1,17.52,1.44,-1.725,1.5277,1,1,148262.0,627364.0,1695,0.45332038,7.2209282,8.5128174,80.512802,7.66105,591.644,-76.7979,33.3163,49.4735,101.769
1980-06-14 00:20:06,1,16.8095,0.661905,-3.24286,2.79284,1,1,150192.0,604505.0,1695,0.45332944,7.2209396,8.5105286,80.514435,7.71532,593.215,-75.5859,45.928,49.7945,99.8982
1980-06-14 00:20:46,1,16.39,2.11,-3.695,2.36987,1,1,203532.0,608645.0,1695,0.45332944,7.2209396,8.5027161,80.514435,8.16629,597.962,-76.8333,41.719,57.9662,100.24
1980-06-14 00:21:27,1,16.7762,2.45714,0.67619,1.46202,1,1,158419.0,659622.0,1695,0.4533385,7.2209511,8.496521,80.516052,8.53996,596.011,-78.8532,8.89792,51.1401,104.353
1980-06-14 00:22:07,1,16.895,2.985,-0.295,1.38789,1,1,182335.0,591103.0,1695,0.45334756,7.2209616,8.4942322,80.51767,7.466,592.283,-87.2916,27.731,54.8647,98.7846
1980-06-14 00:22:48,1,16.8333,3.46667,0.652381,1.21588,1,1,185882.0,577812.0,1695,0.45334756,7.2209616,8.4864197,80.51767,8.22365,596.438,-86.1619,5.1838,55.3957,97.6678
1980-06-14 00:23:28,1,16.485,3.875,-0.185,1.87041,1,1,189687.0,520153.0,1695,0.45335662,7.220973,8.4841309,80.519287,6.95633,592.384,-92.0579,21.1411,55.9599,92.6667
1980-06-14 00:24:09,1,15.135,7.535,-1.725,2.97833,1,1,227271.0,626773.0,1695,0.45336568,7.2209845,8.4779663,80.52092,8.48631,601.859,-111.432,26.5614,61.2534,101.722
1980-06-14 00:24:49,-1,nan,nan,nan,nan,1,-3,nan,nan,1695,0.45336568,7.2209845,8.4740601,80.52092,nan,678.598,34.9303,82.4779,nan,nan
1980-06-14 00:25:30,-1,nan,nan,nan,nan,1,4,nan,nan,1695,0.45337468,7.2209959,8.467865,80.522537,nan,nan,nan,nan,nan,nan
1980-06-14 00:26:10,1,16.45,4.605,-2.605,2.7509,1,1,199311.0,617969.0,1695,0.45338374,7.2210073,8.4616699,80.524155,8.78402,599.746,-95.7854,49.478,57.3618,101.005
1980-06-14 00:26:51,1,14.7818,5.95,-5.43182,3.15563,1,1,249453.0,603724.0,1695,0.45338374,7.2210073,8.4577637,80.524155,8.08767,609.588,-131.189,19.6936,64.1731,99.8337
1980-06-14 00:27:31,1,14.6952,0.571429,-7.37143,4.29449,1,1,180910.0,612477.0,1695,0.4533928,7.2210188,8.4515686,80.525772,8.44463,601.725,-53.4306,67.7192,54.6498,100.555
1980-06-14 00:28:12,1,16.5524,3.30952,-3.0,2.51595,1,1,161315.0,579473.0,1695,0.45340186,7.2210293,8.4492798,80.527405,7.78991,596.325,-83.6364,43.1658,51.6054,97.808
1980-06-14 00:28:52,1,13.405,9.23,-3.53,3.68574,1,1,210156.0,532208.0,1695,0.45340186,7.2210293,8.4414673,80.527405,7.65242,602.388,-112.125,33.1865,58.9019,93.7343
1980-06-14 00:29:33,1,11.2091,2.07727,-10.7318,5.6465,1,1,184801.0,509710.0,1695,0.45341092,7.2210407,8.4352722,80.529022,6.56102,616.91,-88.4865,91.7347,55.2345,91.7317
1980-06-14 00:30:13,1,6.01905,-3.32857,-14.2286,3.51079,1,1,198068.0,578231.0,1695,0.45341998,7.2210522,8.4329834,80.53064,7.77574,645.377,-47.5351,112.024,57.1828,97.7032
1980-06-14 00:30:54,1,7.44348,-3.93043,-13.3696,3.09736,1,1,196866.0,543837.0,1695,0.45341998,7.2210522,8.4251709,80.53064,7.61131,680.667,-35.4054,124.52,57.0089,94.7528
1980-06-14 00:31:34,1,6.40909,-3.45455,-13.5727,3.64365,1,1,211657.0,432185.0,1695,0.45342904,7.2210636,8.4228821,80.532257,6.45597,677.289,-15.7995,111.705,59.1118,84.4681
1980-06-14 00:32:15,1,7.33478,1.06957,-13.1739,4.35114,1,1,184854.0,600012.0,1695,0.4534381,7.2210751,8.4167175,80.53389,7.66415,674.817,-90.5991,128.499,55.2424,99.5263
1980-06-14 00:32:55,1,9.22917,4.15,-11.8333,4.73296,1,1,247184.0,496012.0,1695,0.4534381,7.2210751,8.408905,80.53389,7.06095,670.948,-93.1908,126.61,63.8805,90.4907
1980-06-14 00:33:36,-1,nan,nan,nan,nan,1,4,nan,nan,1695,0.45344716,7.2210855,8.4066162,80.535507,nan,nan,nan,nan,nan,nan
1980-06-14 00:34:16,1,14.725,5.655,4.38,2.81335,1,1,193199.0,556687.0,1695,0.45345622,7.221097,8.4004211,80.537125,8.12737,602.56,-104.218,-10.692,56.4756,95.8658
1980-06-14 00:34:57,1,10.8286,8.71429,5.66667,4.85894,1,1,316805.0,792998.0,1695,0.45345622,7.221097,8.3965149,80.537125,8.36971,628.284,-130.201,-16.834,72.3192,114.418
1980-06-14 00:35:37,1,2.27727,15.6773,-2.58636,2.06643,1,1,272190.0,596003.0,1695,0.45346528,7.2211084,8.3903198,80.538742,7.68542,688.419,-180.787,40.0862,67.0338,99.1932
1980-06-14 00:36:18,1,5.72174,15.3304,-0.108696,2.53176,1,1,286381.0,558379.0,1695,0.45347434,7.2211199,8.388031,80.540375,8.40795,669.659,-170.522,23.0271,68.7591,96.0113
1980-06-14 00:36:58,1,12.4682,7.95455,3.5,6.40398,1,1,223597.0,567009.0,1695,0.45347434,7.2211199,8.3802185,80.540375,8.56392,618.05,-128.273,-5.04452,60.7562,96.7504
1980-06-14 00:37:39,1,14.8136,0.254545,6.16364,1.38386,1,1,197708.0,547372.0,1695,0.4534834,7.2211313,8.3740234,80.541992,6.84919,604.303,-80.0885,-27.0765,57.1307,95.0603
1980-06-14 00:38:19,1,14.605,6.32,2.385,3.90017,1,1,239202.0,730410.0,1695,0.4534924,7.2211428,8.3717346,80.54361,9.37828,605.528,-95.7775,-1.48564,62.8406,109.81
1980-06-14 00:39:00,-1,nan,nan,nan,nan,1,4,nan,nan,1695,0.45350146,7.2211533,8.3655396,80.545227,nan,nan,nan,nan,nan,nan
1980-06-14 00:39:40,-1,nan,nan,nan,nan,1,4,nan,nan,1695,0.45350146,7.2211533,8.3616333,80.545227,nan,nan,nan,nan,nan,nan
1980-06-14 00:40:21,1,9.57826,12.8565,0.0652174,4.41572,1,1,266697.0,530032.0,1695,0.45351052,7.2211647,8.3554688,80.54686,7.4969,646.957,-166.8,7.98856,66.354,93.5425
1980-06-14 00:41:01,-1,nan,nan,nan,nan,1,4,nan,nan,1695,0.45351958,7.2211761,8.3492737,80.548477,nan,nan,nan,nan,nan,nan
1980-06-14 00:41:42,1,14.8381,5.88095,-0.209524,3.69324,1,1,254260.0,599776.0,1695,0.45351958,7.2211761,8.3453674,80.548477,8.24084,593.12,-87.104,-0.941595,64.7883,99.5067
1980-06-14 00:42:22,1,11.53,10.875,-0.05,4.49349,1,1,221226.0,559288.0,1695,0.45352864,7.2211876,8.3391724,80.550095,7.50395,621.711,-130.764,16.2705,60.4332,96.0895
1980-06-14 00:43:03,-1,nan,nan,nan,nan,1,4,nan,nan,1695,0.4535377,7.221199,8.3368835,80.551712,nan,nan,nan,nan,nan,nan
1980-06-14 00:43:43,1,8.45,-6.665,9.685,3.31211,1,1,249985.0,705392.0,1695,0.4535377,7.221199,8.329071,80.551712,8.49241,644.034,-5.93959,-54.3999,64.2414,107.913
1980-06-14 00:44:24,1,5.34545,-7.30909,11.1955,2.86199,1,1,216175.0,618412.0,1695,0.45354676,7.2212095,8.322876,80.553345,7.92176,665.758,-28.8646,-80.5396,59.7394,101.041
1980-06-14 00:45:04,1,2.74348,-2.58261,14.3087,3.09198,1,1,208600.0,617383.0,1695,0.45355582,7.221221,8.3205872,80.554962,7.14642,689.445,-37.4891,-98.0679,58.6834,100.957
1980-06-14 00:45:45,1,6.54545,-0.454545,14.1227,3.57547,1,1,185658.0,614506.0,1695,0.45355582,7.221221,8.3127747,80.554962,7.25791,665.404,-51.0848,-92.2358,55.3624,100.721
1980-06-14 00:47:06,1,7.93333,0.477778,13.9333,0.803849,1,1,211417.0,632068.0,1695,0.45357394,7.2212439,8.3042908,80.558197,8.09278,656.562,-58.9863,-86.0874,59.0783,102.15
1980-06-14 00:47:46,1,9.30909,2.61818,12.9364,2.41173,1,1,198714.0,635385.0,1695,0.45357394,7.2212439,8.3003845,80.558197,8.17652,644.879,-85.1782,-81.1883,57.2759,102.418
1980-06-14 00:48:27,-1,nan,nan,nan,nan,1,4,nan,nan,1695,0.453583,7.2212553,8.29422,80.55983,nan,nan,nan,nan,nan,nan
1980-06-14 00:49:07,1,15.7316,-3.07368,1.14737,0.646662,1,1,244499.0,700923.0,1695,0.453592,7.2212667,8.2880249,80.561447,7.94835,595.104,-46.8401,0.18186,63.5326,107.57
1980-06-14 00:49:48,1,15.2429,-1.68571,1.33333,1.88684,1,1,389403.0,678892.0,1695,0.45359206,7.2212667,8.2841187,80.561447,8.49502,596.49,-50.6061,13.9315,80.1784,105.866
1980-06-14 00:50:28,1,15.7842,-0.384211,-1.56842,3.57706,1,1,256623.0,603917.0,1695,0.45360106,7.2212772,8.2779236,80.563065,8.44641,596.39,-95.8932,-8.28575,65.0887,99.8497
1980-06-14 00:51:09,1,16.2,-1.35238,-1.34286,1.62779,1,1,220887.0,621868.0,1695,0.45361012,7.2212887,8.2756348,80.564682,7.83413,588.368,-66.1333,17.4453,60.387,101.323
1980-06-14 00:51:49,1,15.82,-3.22,-4.2,1.45884,1,1,187392.0,562165.0,1695,0.45361012,7.2212887,8.2678223,80.564682,7.6236,596.398,-31.3296,39.1195,55.6203,96.3363
1980-06-14 00:52:30,1,16.6381,-0.885714,-1.6619,2.03639,1,1,200824.0,552967.0,1695,0.45361918,7.2213001,8.2616272,80.566315,7.9723,588.946,-44.3829,38.4847,57.5792,95.5449
1980-06-14 00:53:10,1,16.9,0.0842105,0.952632,1.49759,1,1,204080.0,629808.0,1695,0.45362824,7.2213116,8.2593384,80.567932,8.39096,593.755,-64.7197,6.07338,58.0442,101.968
1980-06-14 00:53:51,1,14.3952,-5.1619,0.228571,5.2386,1,1,162826.0,619436.0,1695,0.45362824,7.2213116,8.2515259,80.567932,7.99174,593.077,-38.0717,12.9808,51.8466,101.124
1980-06-14 00:54:31,1,7.35238,-12.019,-2.79048,4.22342,1,1,242880.0,512312.0,1695,0.4536373,7.221323,8.2492371,80.56955,8.06884,674.277,31.4516,22.4931,63.3219,91.9656
1980-06-14 00:55:12,1,5.56087,-13.187,-2.9,2.59951,1,1,201584.0,607276.0,1695,0.45364636,7.2213335,8.243042,80.571167,7.89636,671.834,30.6937,24.3027,57.6881,100.127
1980-06-14 00:55:52,1,9.49091,-12.0227,0.604545,2.60093,1,1,180411.0,546337.0,1695,0.45364636,7.2213335,8.2352295,80.571167,7.37465,657.455,24.5334,11.783,54.5744,94.9704
1980-06-14 00:56:33,1,10.2957,-10.6261,-4.44348,2.5066,1,1,196386.0,686020.0,1695,0.45365542,7.2213449,8.2329712,80.5728,8.6,631.946,5.87015,43.0243,56.9394,106.421
1980-06-14 00:57:13,1,7.64091,-11.5318,-4.86364,2.1064,1,1,226389.0,623613.0,1695,0.45366448,7.2213564,8.2267761,80.574417,8.41907,659.895,21.499,40.0547,61.1344,101.465
1980-06-14 00:57:54,1,5.23478,-13.0087,-2.96087,1.60251,1,1,231339.0,524779.0,1695,0.45366448,7.2213564,8.2228699,80.574417,7.5073,673.905,30.2894,28.3559,61.7991,93.0778
1980-06-14 00:58:34,1,4.47143,-12.3524,-5.4619,1.49451,1,1,217739.0,626438.0,1695,0.45367354,7.2213678,8.2166748,80.576035,8.05109,676.919,23.7223,46.3158,59.9551,101.694
1980-06-14 00:59:15,1,4.5087,-13.0217,-4.98261,1.74966,1,1,202288.0,595398.0,1695,0.4536826,7.2213793,8.214386,80.577652,7.53296,671.328,31.3658,39.2738,57.7887,99.1429
1980-06-14 00:59:55,1,5.9381,-12.0667,-4.98571,3.85092,1,1,222755.0,598822.0,1695,0.4536826,7.2213793,8.2065735,80.577652,7.26357,656.027,-0.524891,91.5263,60.6418,99.4275
1980-06-14 01:00:36,1,3.61739,-12.8783,-5.84783,1.87929,1,1,321008.0,627094.0,1695,0.45369166,7.2213907,8.2003784,80.579285,8.46098,690.14,32.6496,46.2918,72.7974,101.748
1980-06-14 01:01:16,1,2.63182,-14.2182,-1.33636,1.99831,1,1,215725.0,487782.0,1695,0.45370066,7.2214012,8.1980896,80.580887,6.54911,701.231,34.3612,33.8499,59.6772,89.7369
1980-06-14 01:01:57,-1,nan,nan,nan,nan,1,4,nan,nan,1695,0.45370072,7.2214012,8.1902771,80.580902,nan,nan,nan,nan,nan,nan
1980-06-14 01:02:37,1,6.89524,13.0238,-3.70952,3.86514,1,1,351363.0,753831.0,1695,0.45370972,7.2214117,8.1879883,80.582504,10.4788,657.239,-170.056,37.3339,76.1616,111.557
1980-06-14 01:03:18,1,9.3,12.8261,-1.79565,2.76684,1,1,304046.0,614824.0,1695,0.45371878,7.2214222,8.1817932,80.584122,8.18301,657.857,-169.878,9.15331,70.848,100.747
1980-06-14 01:03:58,-1,nan,nan,nan,nan,1,4,nan,nan,1695,0.45371878,7.2214222,8.1739807,80.584122,nan,nan,nan,nan,nan,nan
1980-06-14 01:04:39,1,10.14,10.46,-1.86,6.36633,1,1,357193.0,513584.0,1695,0.45372784,7.2214327,8.1716919,80.585739,7.97492,600.04,-93.863,-9.70086,76.7908,92.0797
1980-06-14 01:05:19,1,3.78571,14.6381,-5.22857,1.32482,1,1,251173.0,664376.0,1695,0.4537369,7.2214432,8.1654968,80.587357,8.59108,684.398,-167.272,50.0797,64.3938,104.729
1980-06-14 01:06:00,1,4.86667,15.0625,-2.25833,1.56775,1,1,295002.0,540986.0,1695,0.45374596,7.2214537,8.163208,80.588974,8.2109,675.269,-176.104,15.6333,69.7864,94.5041
1980-06-14 01:06:40,1,6.75909,14.4182,-0.736364,1.59711,1,1,289745.0,572527.0,1695,0.45374596,7.2214537,8.1553955,80.588974,7.05373,664.723,-167.808,22.2772,69.1617,97.2201
1980-06-14 01:07:21,1,7.19167,13.5958,1.5625,2.15159,1,1,319677.0,615284.0,1695,0.45375502,7.2214642,8.1492004,80.590591,8.26372,653.068,-164.856,5.70788,72.6463,100.785
1980-06-14 01:08:01,1,9.93182,11.55,-0.654545,3.89614,1,1,251683.0,685435.0,1695,0.45376408,7.2214746,8.1469116,80.592209,9.22713,627.349,-138.075,47.5417,64.4592,106.375
1980-06-14 01:08:42,1,13.05,9.21818,-0.627273,1.77061,1,1,257763.0,634525.0,1695,0.45376408,7.2214746,8.1390991,80.592209,9.28527,616.775,-133.155,-5.38974,65.2331,102.349
1980-06-14 01:09:22,1,13.981,8.25238,-1.22857,1.26881,1,1,243959.0,592770.0,1695,0.45377314,7.2214851,8.1368103,80.593826,7.95241,610.692,-125.139,16.1193,63.4624,98.9238
1980-06-14 01:10:03,1,14.0,8.29545,-2.96818,0.973216,1,1,221260.0,643525.0,1695,0.4537822,7.2214956,8.1306152,80.595444,8.5167,610.199,-115.769,36.6263,60.438,103.072
1980-06-14 01:10:43,1,14.44,4.89,-1.365,5.3944,1,1,238044.0,642890.0,1695,0.4537822,7.2214956,8.126709,80.595444,8.18374,607.74,-105.178,37.0638,62.6883,103.021
1980-06-14 01:11:24,1,15.3857,-2.10952,3.30476,1.30006,1,1,275209.0,580121.0,1695,0.45379126,7.2215061,8.1205139,80.597061,8.32988,585.707,-54.8071,-1.0927,67.4045,97.8627
1980-06-14 01:12:04,1,15.6368,-1.6,-2.12105,2.57412,1,1,187655.0,623362.0,1695,0.45380032,7.2215166,8.1143188,80.598679,7.82228,596.987,-35.0852,27.3489,55.6594,101.444
1980-06-14 01:12:45,1,14.0952,-3.17143,-5.86667,1.86546,1,1,212744.0,583751.0,1695,0.45380032,7.2215166,8.1104126,80.598679,7.56335,608.565,-29.1242,59.1134,59.2633,98.1684
1980-06-14 01:13:25,1,12.47,-4.6,-7.725,1.79916,1,1,197397.0,605232.0,1695,0.45380938,7.2215271,8.104187,80.600281,7.5912,615.622,-23.8498,68.0456,57.0858,99.9583
1980-06-14 01:14:06,1,11.1,-2.95455,-9.45,4.13043,1,1,231327.0,569436.0,1695,0.45381844,7.2215376,8.1018982,80.601898,8.0358,630.899,-20.4697,76.3414,61.7976,96.9572
1980-06-14 01:14:46,-1,nan,nan,nan,nan,1,-3,nan,nan,1695,0.45381844,7.2215376,8.0940857,80.601898,nan,686.266,31.3078,-21.6387,nan,nan
1980-06-14 01:15:27,1,7.18182,-13.3136,-0.736364,0.998853,1,1,247926.0,593645.0,1695,0.4538275,7.2215481,8.0878906,80.603516,8.16383,650.17,26.6257,19.9426,63.9763,98.9968
1980-06-14 01:16:07,1,7.38571,-12.5286,-2.88095,2.93599,1,1,195529.0,426093.0,1695,0.4538365,7.2215586,8.0856018,80.605133,5.73625,664.246,31.4185,37.5777,56.8151,83.8707
1980-06-14 01:16:48,1,4.88636,-13.4045,-3.12727,2.3483,1,1,240863.0,562735.0,1695,0.45383656,7.2215586,8.0777893,80.605133,7.51996,665.314,36.571,18.0931,63.0584,96.3851
1980-06-14 01:17:28,1,2.01364,-14.1182,-2.12273,2.06439,1,1,192126.0,610388.0,1695,0.45384556,7.2215691,8.0755005,80.60675,8.53442,688.215,37.6713,23.9957,56.3185,100.383
1980-06-14 01:18:09,1,3.26087,-12.9522,-4.30435,3.81645,1,1,217277.0,639669.0,1695,0.45385462,7.2215796,8.0693054,80.608368,8.28579,669.246,33.2289,39.3168,59.8915,102.763
1980-06-14 01:18:49,1,4.31818,-13.2409,-2.47273,2.83749,1,1,202865.0,594458.0,1695,0.45385462,7.2215796,8.0614929,80.608368,7.60865,671.138,36.264,18.5786,57.8711,99.0646
1980-06-14 01:19:30,1,1.79565,-13.9696,1.94783,1.41045,1,1,239979.0,601138.0,1695,0.45386368,7.22159,8.0592041,80.609985,7.64747,690.977,41.1444,-1.23052,62.9426,99.6196
1980-06-14 01:20:10,1,5.11818,-12.7773,-1.11364,5.35816,1,1,203209.0,576322.0,1695,0.45387274,7.2216015,8.053009,80.611603,7.7444,679.91,37.2602,10.4637,57.9201,97.5417
1980-06-14 01:20:51,1,7.94545,-11.0136,-4.70909,3.32004,1,1,199398.0,517810.0,1695,0.45387274,7.2216015,8.0491028,80.611603,6.85978,642.965,15.5207,57.1915,57.3744,92.4577
1980-06-14 01:21:31,1,3.72857,-13.8095,0.361905,2.82599,1,1,187699.0,583762.0,1695,0.4538818,7.221612,8.0429077,80.61322,7.50523,685.126,38.7322,9.17846,55.6658,98.1693
1980-06-14 01:22:12,1,2.7,-13.6136,-1.94545,2.89278,1,1,264447.0,563370.0,1695,0.45389086,7.2216225,8.0406189,80.614838,8.03097,686.091,40.8853,3.73039,66.0734,96.4394
1980-06-14 01:22:52,1,0.895455,-12.3409,-5.6,4.1176,1,1,273431.0,567265.0,1695,0.45389086,7.2216225,8.0328064,80.614838,8.61454,713.989,35.5957,17.4746,67.1864,96.7723
1980-06-14 01:23:33,1,-4.78333,-10.8875,-6.46667,2.98394,1,1,240822.0,607660.0,1695,0.45389992,7.221633,8.0266113,80.616455,7.98001,758.568,16.9291,62.2139,63.053,100.159
1980-06-14 01:24:13,1,-7.63478,-8.8913,-6.23913,2.72257,1,1,232097.0,593270.0,1695,0.45390898,7.2216434,8.0243225,80.618073,8.15897,784.309,-11.6317,58.6589,61.9003,98.9656
1980-06-14 01:24:54,1,-6.996,-10.708,-4.144,2.34785,1,1,287717.0,561752.0,1695,0.45390898,7.2216434,8.01651,80.618073,7.8655,757.295,22.7525,17.2921,68.9193,96.3009
1980-06-14 01:25:34,1,-4.3913,-10.0348,-7.48261,1.98432,1,1,217439.0,571124.0,1695,0.45391804,7.2216539,8.0142212,80.619675,7.49587,743.399,4.63861,82.0897,59.9137,97.1009
1980-06-14 01:26:15,1,-3.81304,-11.913,-3.75217,2.89655,1,1,264950.0,561581.0,1695,0.4539271,7.2216644,8.0080261,80.621292,7.67867,713.113,41.0797,24.6223,66.1363,96.2862
1980-06-14 01:26:55,1,-7.48696,-9.63913,-4.95217,1.20178,1,1,231218.0,566339.0,1695,0.4539271,7.2216644,8.0002136,80.621292,7.29077,765.507,11.007,42.0534,61.783,96.6932
1980-06-14 01:27:36,-1,nan,nan,nan,nan,1,-3,nan,nan,1695,0.45393616,7.2216749,7.9979248,80.62291,nan,738.325,16.3259,61.6766,nan,nan
1980-06-14 01:28:16,-1,nan,nan,nan,nan,1,4,nan,nan,1695,0.45394522,7.2216854,7.9917297,80.624527,nan,nan,nan,nan,nan,nan
1980-06-14 01:28:57,1,15.295,-2.04,-0.42,2.40613,1,1,201015.0,588408.0,1695,0.45394522,7.2216854,7.9878235,80.624527,7.40973,590.451,-73.2478,15.9553,57.6066,98.5592
1980-06-14 01:29:37,1,13.3952,-4.97619,1.71905,3.747,1,1,177186.0,626469.0,1695,0.45395428,7.2216959,7.9816284,80.626144,7.98703,593.405,-44.8265,-4.26424,54.0845,101.697
1980-06-14 01:30:18,1,14.3143,-3.1,-3.06667,2.59259,1,1,161034.0,649217.0,1695,0.45396334,7.2217064,7.9754333,80.627762,7.79171,588.547,-46.0934,30.8945,51.5604,103.527
1980-06-14 01:30:58,-1,nan,nan,nan,nan,1,-3,nan,nan,1695,0.45396334,7.2217064,7.9715271,80.627762,nan,630.548,16.1902,-24.3292,nan,nan
1980-06-14 01:31:39,-1,nan,nan,nan,nan,1,4,nan,nan,1695,0.4539724,7.2217169,7.965332,80.629379,nan,nan,nan,nan,nan,nan
1980-06-14 01:32:19,1,12.6,-8.645,-0.685,1.92321,1,1,181156.0,652457.0,1695,0.4539814,7.2217274,7.9630432,80.630997,8.7591,613.926,3.78298,27.2511,54.6871,103.785
1980-06-14 01:33:00,1,11.6238,-10.081,-1.35238,2.29371,1,1,166428.0,546647.0,1695,0.45399046,7.2217379,7.9568481,80.632614,7.39657,612.331,6.28636,20.9591,52.4169,94.9974
1980-06-14 01:33:40,1,13.475,-5.66,-3.665,4.77007,1,1,194001.0,589117.0,1695,0.45399046,7.2217379,7.9529419,80.632614,7.64703,608.952,-16.7648,62.8724,56.5926,98.6186
1980-06-14 01:34:21,-1,nan,nan,nan,nan,1,4,nan,nan,1695,0.45399952,7.2217484,7.9467468,80.634232,nan,nan,nan,nan,nan,nan
1980-06-14 01:35:01,1,13.1526,-7.12105,1.65789,3.11081,1,1,193140.0,697516.0,1695,0.45400858,7.2217588,7.9405518,80.635849,9.54812,600.988,-25.2696,19.2191,56.467,107.309
1980-06-14 01:35:42,1,10.3,-8.94286,-1.09524,6.05074,1,1,280112.0,589417.0,1695,0.45400858,7.2217588,7.9366455,80.635849,8.47522,590.575,-41.0158,30.4866,68.0023,98.6436
1980-06-14 01:36:22,1,7.30909,-10.7909,-5.18182,4.2884,1,1,205556.0,636659.0,1695,0.45401764,7.2217693,7.9304504,80.637466,8.62804,645.64,-2.722,87.7977,58.2536,102.521
1980-06-14 01:37:03,-1,nan,nan,nan,nan,1,4,nan,nan,1695,0.4540267,7.2217798,7.9281311,80.639069,nan,nan,nan,nan,nan,nan
1980-06-14 01:37:43,1,9.35238,-10.4095,-3.6381,3.19747,1,1,172425.0,607773.0,1695,0.4540267,7.2217798,7.9203186,80.639069,7.95238,621.296,5.81367,33.3398,53.3528,100.168
1980-06-14 01:38:24,1,6.1,-12.4091,-3.68182,3.08906,1,1,198273.0,541613.0,1695,0.45403576,7.2217903,7.9141235,80.640686,7.08985,662.296,35.9571,35.7648,57.2123,94.5589
1980-06-14 01:39:04,1,6.98095,-12.5476,-1.90476,1.84409,1,1,222533.0,608289.0,1695,0.45404482,7.2218008,7.9118347,80.642303,7.50319,650.163,25.8079,49.5901,60.6115,100.21
1980-06-14 01:39:45,1,7.1381,-12.4762,-0.128571,1.83005,1,1,217952.0,711641.0,1695,0.45404482,7.2218008,7.9040222,80.642303,9.36654,641.052,23.1962,0.708411,59.9844,108.39
1980-06-14 01:40:25,1,4.95455,-13.4955,-1.53636,1.70154,1,1,202287.0,541394.0,1695,0.45405388,7.2218122,7.9017334,80.643921,6.95322,657.317,32.0143,23.2051,57.7886,94.5398